This is the latest recevied weather packets stored in our database for station/object KI5QCM. If no packets are shown the sender has not sent any weather packets the latest 10 day(s).
| Time | Temp. | Humidity | Pressure | Rain* | Wind** | Luminosity | Snow |
|---|---|---|---|---|---|---|---|
| 1788107737 | 33.33° C | 50% | 1014.7 hPa | 0 mm | - | 709 W/m² | - |
| 1788107161 | 33.33° C | 50% | 1014.7 hPa | 0 mm | - | 677 W/m² | - |
| 1788106521 | 33.33° C | 50% | 1014.7 hPa | 0 mm | - | 681 W/m² | - |
| 1788105978 | 32.78° C | 51% | 1014.9 hPa | 0 mm | - | 616 W/m² | - |
| 1788105338 | 32.22° C | 51% | 1014.9 hPa | 0 mm | - | 557 W/m² | - |
| 1788104761 | 32.22° C | 51% | 1014.7 hPa | 0 mm | - | 577 W/m² | - |
| 1788104122 | 31.67° C | 53% | 1014.6 hPa | 0 mm | - | 565 W/m² | - |
| 1788103545 | 31.11° C | 54% | 1014.5 hPa | 0 mm | - | 533 W/m² | - |
| 1788102970 | 30.56° C | 56% | 1014.5 hPa | 0 mm | - | 484 W/m² | - |
| 1788102330 | 30° C | 56% | 1014.7 hPa | 0 mm | - | 451 W/m² | - |
| 1788101738 | 29.44° C | 58% | 1014.8 hPa | 0 mm | - | 376 W/m² | - |
| 1788101162 | 28.33° C | 60% | 1014.8 hPa | 0 mm | - | 308 W/m² | - |
| 1788100569 | 27.78° C | 62% | 1014.8 hPa | 0 mm | - | 201 W/m² | - |
| 1788099930 | 27.22° C | 63% | 1014.8 hPa | 0 mm | - | 142 W/m² | - |
| 1788099353 | 26.67° C | 63% | 1014.8 hPa | 0 mm | - | 154 W/m² | - |
| 1788098778 | 26.67° C | 64% | 1015 hPa | 0 mm | - | 174 W/m² | - |
| 1788098121 | 26.67° C | 65% | 1015 hPa | 0 mm | - | 100 W/m² | - |
| 1788097530 | 26.11° C | 65% | 1014.9 hPa | 0 mm | - | 100 W/m² | - |
| 1788096954 | 25.56° C | 68% | 1015.1 hPa | 0 mm | - | 104 W/m² | - |
| 1788096378 | 25° C | 69% | 1015 hPa | 0 mm | - | 70 W/m² | - |
| 1788095722 | 24.44° C | 71% | 1015 hPa | 0 mm | - | 68 W/m² | - |
| 1788095135 | 23.33° C | 74% | 1014.8 hPa | 0 mm | - | 68 W/m² | - |
| 1788094554 | 23.33° C | 76% | 1014.9 hPa | 0 mm | - | 42 W/m² | - |
| 1788093978 | 22.78° C | 76% | 1014.9 hPa | 0 mm | - | 35 W/m² | - |
| 1788093338 | 22.22° C | 78% | 1014.7 hPa | 0 mm | - | 29 W/m² | - |
* Rain latest hour (hover to see other rain measurements)
** Current wind speed in m/s (hover to see current wind gust speed)